Volver al catálogo

STARLINK-30978

ActivoComunicacionesVLEO
NORAD 58490·PAYLOAD·🇺🇸 United States

Lanzado Dec 3, 2023 desde Cape Canaveral Space Force Station

Loading…

Próximos Pases (próximas 24 horas)

TLE

ActualizadoSource: CelesTrak SupGP

Época: Sep 15, 2026, 02:26 UTC

1 58490C 23186T   26258.10187500 -.00006813  00000+0 -24686-3 0  2587
2 58490  43.0026  73.8709 0002026 265.9712 150.6369 15.27568512    12

Sigue STARLINK-30978 en tiempo real con AllMySat

Download on the App Store